Wetterdaten: Woche 29.12.08 - 04.01.09 (KW1)
Datum Zeit Temp. Innen Temp. Aussen Feuchte Inne Feuchte Auss Luftdruck Regen ab 0,1 Wind
29.12.2008 00:00 16,7 C -4,5 C 35 % 82 % 1030,7 hPa 0,0 l/m 0,0 km/h (0 Bft)
29.12.2008 01:00 16,2 C -5,0 C 35 % 83 % 1030,7 hPa 0,0 l/m 0,0 km/h (0 Bft)
29.12.2008 02:00 15,9 C -5,4 C 36 % 83 % 1030,7 hPa 0,0 l/m 0,0 km/h (0 Bft)
29.12.2008 03:00 15,6 C -5,9 C 36 % 84 % 1030,7 hPa 0,0 l/m 0,0 km/h (0 Bft)
29.12.2008 04:00 15,5 C -6,3 C 36 % 84 % 1030,5 hPa 0,0 l/m 0,0 km/h (0 Bft)
29.12.2008 05:00 15,5 C -6,4 C 36 % 84 % 1030,5 hPa 0,0 l/m 0,0 km/h (0 Bft)
29.12.2008 06:00 15,9 C -6,8 C 36 % 84 % 1029,9 hPa 0,0 l/m 0,0 km/h (0 Bft)
29.12.2008 07:00 15,8 C -7,1 C 35 % 84 % 1030,2 hPa 0,0 l/m 0,0 km/h (0 Bft)
29.12.2008 08:00 15,8 C -7,2 C 35 % 85 % 1030,8 hPa 0,0 l/m 0,0 km/h (0 Bft)
29.12.2008 09:00 15,9 C -7,6 C 35 % 85 % 1030,8 hPa 0,0 l/m 0,0 km/h (0 Bft)
29.12.2008 10:00 16,0 C -6,1 C 35 % 86 % 1030,7 hPa 0,0 l/m 0,0 km/h (0 Bft)
29.12.2008 11:00 16,1 C -3,3 C 35 % 86 % 1030,7 hPa 0,0 l/m 0,0 km/h (0 Bft)
29.12.2008 12:00 16,2 C -0,5 C 35 % 85 % 1030,6 hPa 0,0 l/m 0,0 km/h (0 Bft)
29.12.2008 13:00 16,3 C 0,6 C 35 % 80 % 1030,6 hPa 0,0 l/m 0,0 km/h (0 Bft)
29.12.2008 14:00 16,7 C 1,3 C 35 % 77 % 1030,6 hPa 0,0 l/m 0,0 km/h (0 Bft)
29.12.2008 15:00 16,6 C 0,6 C 35 % 76 % 1030,6 hPa 0,0 l/m 0,0 km/h (0 Bft)
29.12.2008 16:00 16,4 C -0,6 C 35 % 77 % 1030,6 hPa 0,0 l/m 0,0 km/h (0 Bft)
29.12.2008 17:00 16,6 C -1,9 C 35 % 78 % 1030,7 hPa 0,0 l/m 0,0 km/h (0 Bft)
29.12.2008 18:00 16,6 C -2,8 C 35 % 79 % 1030,7 hPa 0,0 l/m 0,0 km/h (0 Bft)
29.12.2008 19:00 16,3 C -3,4 C 35 % 80 % 1030,7 hPa 0,0 l/m 0,0 km/h (0 Bft)
29.12.2008 20:00 16,2 C -3,8 C 35 % 81 % 1031,0 hPa 0,0 l/m 0,0 km/h (0 Bft)
29.12.2008 21:00 16,0 C -3,6 C 35 % 81 % 1031,6 hPa 0,0 l/m 0,0 km/h (0 Bft)
29.12.2008 22:00 16,2 C -2,9 C 35 % 81 % 1031,7 hPa 0,0 l/m 0,0 km/h (0 Bft)
29.12.2008 23:00 16,2 C -3,0 C 35 % 80 % 1031,7 hPa 0,0 l/m 0,0 km/h (0 Bft)
30.12.2008 00:00 15,8 C -3,4 C 35 % 80 % 1031,7 hPa 0,0 l/m 0,0 km/h (0 Bft)
30.12.2008 01:00 15,6 C -3,9 C 35 % 81 % 1031,7 hPa 0,0 l/m 0,0 km/h (0 Bft)
30.12.2008 02:00 15,5 C -4,3 C 35 % 81 % 1031,7 hPa 0,0 l/m 0,0 km/h (0 Bft)
30.12.2008 03:00 15,4 C -4,5 C 35 % 81 % 1031,7 hPa 0,0 l/m 0,0 km/h (0 Bft)
30.12.2008 04:00 15,3 C -4,6 C 35 % 82 % 1031,7 hPa 0,0 l/m 0,0 km/h (0 Bft)
30.12.2008 05:00 15,3 C -4,7 C 35 % 82 % 1031,7 hPa 0,0 l/m 0,0 km/h (0 Bft)
30.12.2008 06:00 15,2 C -4,8 C 35 % 82 % 1031,7 hPa 0,0 l/m 0,0 km/h (0 Bft)
30.12.2008 07:00 15,2 C -4,7 C 35 % 82 % 1031,7 hPa 0,0 l/m 0,0 km/h (0 Bft)
30.12.2008 08:00 15,2 C -4,7 C 35 % 83 % 1031,7 hPa 0,0 l/m 0,0 km/h (0 Bft)
30.12.2008 09:00 15,5 C -4,6 C 35 % 83 % 1031,9 hPa 0,0 l/m 0,0 km/h (0 Bft)
30.12.2008 10:00 15,7 C -3,7 C 35 % 83 % 1032,4 hPa 0,0 l/m 0,0 km/h (0 Bft)
30.12.2008 11:00 15,8 C -1,3 C 35 % 80 % 1031,7 hPa 0,0 l/m 0,0 km/h (0 Bft)
30.12.2008 12:00 15,9 C 0,9 C 35 % 73 % 1030,8 hPa 0,0 l/m 0,0 km/h (0 Bft)
30.12.2008 13:00 16,0 C 1,7 C 35 % 69 % 1030,6 hPa 0,0 l/m 0,0 km/h (0 Bft)
30.12.2008 14:00 16,0 C 1,9 C 35 % 68 % 1029,6 hPa 0,0 l/m 0,0 km/h (0 Bft)
30.12.2008 15:00 16,2 C 1,1 C 35 % 69 % 1029,6 hPa 0,0 l/m 0,0 km/h (0 Bft)
30.12.2008 16:00 16,6 C -0,1 C 35 % 71 % 1029,6 hPa 0,0 l/m 0,0 km/h (0 Bft)
30.12.2008 17:00 16,3 C -1,5 C 35 % 74 % 1029,7 hPa 0,0 l/m 0,0 km/h (0 Bft)
30.12.2008 18:00 16,4 C -2,4 C 35 % 75 % 1029,7 hPa 0,0 l/m 0,0 km/h (0 Bft)
30.12.2008 19:00 16,1 C -3,0 C 35 % 77 % 1029,7 hPa 0,0 l/m 0,0 km/h (0 Bft)
30.12.2008 20:00 16,2 C -3,7 C 35 % 78 % 1029,7 hPa 0,0 l/m 0,0 km/h (0 Bft)
30.12.2008 21:00 16,0 C -4,1 C 35 % 79 % 1028,9 hPa 0,0 l/m 0,0 km/h (0 Bft)
30.12.2008 22:00 16,0 C -3,8 C 35 % 80 % 1028,7 hPa 0,0 l/m 0,0 km/h (0 Bft)
30.12.2008 23:00 16,2 C -3,6 C 35 % 80 % 1028,7 hPa 0,0 l/m 0,0 km/h (0 Bft)
31.12.2008 00:00 15,8 C -4,1 C 35 % 80 % 1027,9 hPa 0,0 l/m 0,0 km/h (0 Bft)
31.12.2008 01:00 15,6 C -3,9 C 35 % 81 % 1028,4 hPa 0,0 l/m 0,0 km/h (0 Bft)
31.12.2008 02:00 15,4 C -4,3 C 35 % 80 % 1027,7 hPa 0,0 l/m 0,0 km/h (0 Bft)
31.12.2008 03:00 15,4 C -4,7 C 35 % 81 % 1027,7 hPa 0,0 l/m 0,0 km/h (0 Bft)
31.12.2008 04:00 15,3 C -5,3 C 35 % 81 % 1027,7 hPa 0,0 l/m 0,0 km/h (0 Bft)
31.12.2008 05:00 15,2 C -5,9 C 35 % 82 % 1027,7 hPa 0,0 l/m 0,0 km/h (0 Bft)
31.12.2008 06:00 15,2 C -6,2 C 35 % 82 % 1027,1 hPa 0,0 l/m 0,0 km/h (0 Bft)
31.12.2008 07:00 15,1 C -6,5 C 35 % 82 % 1026,7 hPa 0,0 l/m 0,0 km/h (0 Bft)
31.12.2008 08:00 15,1 C -6,7 C 35 % 83 % 1026,7 hPa 0,0 l/m 0,0 km/h (0 Bft)
31.12.2008 09:00 15,4 C -6,3 C 35 % 84 % 1026,7 hPa 0,0 l/m 0,0 km/h (0 Bft)
31.12.2008 10:00 15,8 C -4,4 C 35 % 84 % 1026,7 hPa 0,0 l/m 0,0 km/h (0 Bft)
31.12.2008 11:00 15,9 C -1,9 C 35 % 84 % 1026,6 hPa 0,0 l/m 0,0 km/h (0 Bft)
31.12.2008 12:00 15,8 C 1,6 C 36 % 76 % 1026,0 hPa 0,0 l/m 0,0 km/h (0 Bft)
31.12.2008 13:00 16,1 C 2,3 C 36 % 74 % 1025,6 hPa 0,0 l/m 0,0 km/h (0 Bft)
31.12.2008 14:00 16,3 C 2,1 C 36 % 74 % 1024,8 hPa 0,0 l/m 0,0 km/h (0 Bft)
31.12.2008 15:00 16,4 C 1,4 C 36 % 75 % 1024,6 hPa 0,0 l/m 0,0 km/h (0 Bft)
31.12.2008 16:00 16,4 C 0,4 C 36 % 77 % 1025,4 hPa 0,0 l/m 0,0 km/h (0 Bft)
31.12.2008 17:00 16,4 C -1,0 C 36 % 78 % 1025,6 hPa 0,0 l/m 0,0 km/h (0 Bft)
31.12.2008 18:00 16,2 C -1,8 C 36 % 79 % 1025,6 hPa 0,0 l/m 0,0 km/h (0 Bft)
31.12.2008 19:00 16,3 C -2,5 C 37 % 80 % 1025,6 hPa 0,0 l/m 0,0 km/h (0 Bft)
31.12.2008 20:00 16,2 C -3,1 C 36 % 81 % 1025,7 hPa 0,0 l/m 0,0 km/h (0 Bft)
31.12.2008 21:00 16,0 C -3,7 C 36 % 82 % 1025,7 hPa 0,0 l/m 0,0 km/h (0 Bft)
31.12.2008 22:00 16,0 C -4,5 C 36 % 83 % 1026,2 hPa 0,0 l/m 0,0 km/h (0 Bft)
31.12.2008 23:00 15,8 C -4,7 C 36 % 84 % 1026,9 hPa 0,0 l/m 0,0 km/h (0 Bft)
01.01.2009 00:00 15,9 C -5,1 C 37 % 85 % 1027,6 hPa 0,2 l/m 0,5 km/h (0 Bft)
01.01.2009 01:00 16,2 C -5,2 C 36 % 86 % 1027,7 hPa 0,0 l/m 0,6 km/h (0 Bft)
01.01.2009 02:00 15,8 C -5,5 C 36 % 86 % 1028,3 hPa 0,0 l/m 0,0 km/h (0 Bft)
01.01.2009 03:00 15,5 C -5,4 C 36 % 87 % 1028,7 hPa 0,0 l/m 0,0 km/h (0 Bft)
01.01.2009 04:00 15,3 C -5,0 C 36 % 87 % 1028,7 hPa 0,0 l/m 0,0 km/h (0 Bft)
01.01.2009 05:00 15,2 C -4,6 C 36 % 87 % 1028,7 hPa 0,0 l/m 0,0 km/h (0 Bft)
01.01.2009 06:00 15,2 C -4,2 C 36 % 87 % 1028,7 hPa 0,0 l/m 0,0 km/h (0 Bft)
01.01.2009 07:00 15,1 C -4,0 C 36 % 87 % 1029,5 hPa 0,0 l/m 0,0 km/h (0 Bft)
01.01.2009 08:00 15,0 C -3,8 C 36 % 87 % 1029,7 hPa 0,0 l/m 0,0 km/h (0 Bft)
01.01.2009 09:00 15,3 C -3,7 C 37 % 87 % 1029,7 hPa 0,0 l/m 0,0 km/h (0 Bft)
01.01.2009 10:00 15,7 C -3,5 C 37 % 86 % 1030,4 hPa 0,0 l/m 0,0 km/h (0 Bft)
01.01.2009 11:00 16,1 C -3,1 C 38 % 86 % 1030,7 hPa 0,0 l/m 0,0 km/h (0 Bft)
01.01.2009 12:00 16,0 C -2,6 C 38 % 86 % 1030,0 hPa 0,0 l/m 0,0 km/h (0 Bft)
01.01.2009 13:00 16,3 C -2,0 C 37 % 86 % 1029,8 hPa 0,0 l/m 0,0 km/h (0 Bft)
01.01.2009 14:00 16,4 C -1,6 C 37 % 85 % 1029,6 hPa 0,0 l/m 0,0 km/h (0 Bft)
01.01.2009 15:00 16,5 C -1,4 C 37 % 85 % 1029,6 hPa 0,0 l/m 0,0 km/h (0 Bft)
01.01.2009 16:00 16,5 C -1,5 C 37 % 85 % 1029,7 hPa 0,0 l/m 0,0 km/h (0 Bft)
01.01.2009 17:00 16,4 C -1,6 C 37 % 85 % 1029,7 hPa 0,0 l/m 0,0 km/h (0 Bft)
01.01.2009 18:00 16,5 C -1,6 C 37 % 85 % 1029,7 hPa 0,0 l/m 0,0 km/h (0 Bft)
01.01.2009 19:00 16,7 C -1,6 C 37 % 85 % 1029,7 hPa 0,0 l/m 0,0 km/h (0 Bft)
01.01.2009 20:00 16,7 C -1,5 C 37 % 85 % 1029,7 hPa 0,0 l/m 0,0 km/h (0 Bft)
01.01.2009 21:00 16,4 C -1,3 C 36 % 85 % 1029,2 hPa 0,0 l/m 0,0 km/h (0 Bft)
01.01.2009 22:00 16,7 C -1,1 C 37 % 84 % 1028,6 hPa 0,0 l/m 0,0 km/h (0 Bft)
01.01.2009 23:00 16,7 C -1,1 C 36 % 84 % 1028,6 hPa 0,0 l/m 0,0 km/h (0 Bft)
02.01.2009 00:00 16,1 C -1,1 C 36 % 83 % 1028,2 hPa 0,0 l/m 0,0 km/h (0 Bft)
02.01.2009 01:00 15,9 C -1,1 C 37 % 83 % 1027,6 hPa 0,0 l/m 0,0 km/h (0 Bft)
02.01.2009 02:00 15,7 C -1,1 C 37 % 83 % 1027,3 hPa 0,0 l/m 0,0 km/h (0 Bft)
02.01.2009 03:00 15,6 C -1,1 C 37 % 84 % 1027,2 hPa 0,0 l/m 0,0 km/h (0 Bft)
02.01.2009 04:00 15,6 C -1,2 C 37 % 85 % 1026,6 hPa 0,0 l/m 0,0 km/h (0 Bft)
02.01.2009 05:00 15,6 C -1,2 C 37 % 85 % 1026,6 hPa 0,2 l/m 0,0 km/h (0 Bft)
02.01.2009 06:00 15,6 C -1,2 C 37 % 85 % 1026,6 hPa 0,0 l/m 0,0 km/h (0 Bft)
02.01.2009 07:00 15,9 C -1,1 C 38 % 86 % 1026,6 hPa 0,0 l/m 0,0 km/h (0 Bft)
02.01.2009 08:00 15,9 C -1,1 C 37 % 86 % 1026,6 hPa 0,0 l/m 0,0 km/h (0 Bft)
02.01.2009 09:00 15,7 C -0,9 C 37 % 86 % 1026,9 hPa 0,0 l/m 0,0 km/h (0 Bft)
02.01.2009 10:00 15,6 C -0,6 C 38 % 86 % 1027,6 hPa 0,0 l/m 0,0 km/h (0 Bft)
02.01.2009 11:00 15,6 C -0,1 C 38 % 86 % 1027,6 hPa 0,0 l/m 0,0 km/h (0 Bft)
02.01.2009 12:00 15,6 C 0,2 C 38 % 86 % 1027,6 hPa 0,0 l/m 0,0 km/h (0 Bft)
02.01.2009 13:00 15,6 C 0,4 C 38 % 87 % 1027,6 hPa 0,0 l/m 0,0 km/h (0 Bft)
02.01.2009 14:00 15,6 C 0,4 C 38 % 87 % 1027,7 hPa 0,0 l/m 0,0 km/h (0 Bft)
02.01.2009 15:00 15,6 C 0,4 C 38 % 88 % 1028,6 hPa 0,0 l/m 0,0 km/h (0 Bft)
02.01.2009 16:00 15,6 C 0,3 C 38 % 88 % 1028,6 hPa 0,5 l/m 0,0 km/h (0 Bft)
02.01.2009 17:00 15,6 C 0,3 C 38 % 88 % 1028,6 hPa 0,0 l/m 0,0 km/h (0 Bft)
02.01.2009 18:00 15,9 C 0,3 C 38 % 87 % 1029,5 hPa 0,0 l/m 0,0 km/h (0 Bft)
02.01.2009 19:00 16,5 C 0,4 C 38 % 85 % 1029,7 hPa 0,0 l/m 0,0 km/h (0 Bft)
02.01.2009 20:00 16,4 C -0,1 C 37 % 84 % 1030,6 hPa 0,0 l/m 0,0 km/h (0 Bft)
02.01.2009 21:00 16,4 C -1,1 C 37 % 84 % 1030,6 hPa 0,0 l/m 0,0 km/h (0 Bft)
02.01.2009 22:00 16,7 C -2,1 C 37 % 84 % 1030,7 hPa 0,0 l/m 0,0 km/h (0 Bft)
02.01.2009 23:00 16,8 C -3,0 C 37 % 84 % 1030,7 hPa 0,0 l/m 0,0 km/h (0 Bft)
03.01.2009 00:00 16,3 C -4,0 C 36 % 85 % 1030,7 hPa 0,0 l/m 0,0 km/h (0 Bft)
03.01.2009 01:00 16,0 C -4,9 C 36 % 85 % 1030,7 hPa 0,0 l/m 0,0 km/h (0 Bft)
03.01.2009 02:00 15,7 C -5,7 C 36 % 85 % 1030,7 hPa 0,0 l/m 0,0 km/h (0 Bft)
03.01.2009 03:00 15,6 C -6,6 C 36 % 85 % 1030,6 hPa 0,0 l/m 0,0 km/h (0 Bft)
03.01.2009 04:00 15,4 C -7,4 C 36 % 85 % 1030,0 hPa 0,0 l/m 0,0 km/h (0 Bft)
03.01.2009 05:00 15,3 C -8,0 C 35 % 85 % 1029,8 hPa 0,0 l/m 0,0 km/h (0 Bft)
03.01.2009 06:00 15,2 C -8,6 C 35 % 85 % 1029,3 hPa 0,0 l/m 0,0 km/h (0 Bft)
03.01.2009 07:00 15,2 C -8,8 C 35 % 85 % 1029,2 hPa 0,0 l/m 0,0 km/h (0 Bft)
03.01.2009 08:00 15,3 C -9,1 C 35 % 85 % 1029,4 hPa 0,0 l/m 0,0 km/h (0 Bft)
03.01.2009 09:00 15,3 C -9,0 C 34 % 86 % 1029,8 hPa 0,0 l/m 0,0 km/h (0 Bft)
03.01.2009 10:00 15,4 C -8,2 C 34 % 86 % 1029,4 hPa 0,0 l/m 0,0 km/h (0 Bft)
03.01.2009 11:00 15,4 C -5,5 C 34 % 87 % 1028,7 hPa 0,0 l/m 0,0 km/h (0 Bft)
03.01.2009 12:00 15,1 C -2,2 C 35 % 87 % 1028,7 hPa 0,0 l/m 0,0 km/h (0 Bft)
03.01.2009 13:00 15,0 C -1,5 C 35 % 87 % 1027,8 hPa 0,0 l/m 0,0 km/h (0 Bft)
03.01.2009 14:00 15,1 C -1,0 C 36 % 87 % 1027,0 hPa 0,0 l/m 0,0 km/h (0 Bft)
03.01.2009 15:00 15,2 C -0,7 C 36 % 86 % 1026,6 hPa 0,0 l/m 0,0 km/h (0 Bft)
03.01.2009 16:00 15,2 C -0,6 C 36 % 85 % 1026,4 hPa 0,0 l/m 0,0 km/h (0 Bft)
03.01.2009 17:00 15,3 C -0,7 C 36 % 85 % 1026,0 hPa 0,0 l/m 0,0 km/h (0 Bft)
03.01.2009 18:00 15,4 C -0,8 C 37 % 83 % 1025,6 hPa 0,5 l/m 0,0 km/h (0 Bft)
03.01.2009 19:00 15,3 C -0,8 C 37 % 80 % 1025,5 hPa 0,0 l/m 0,0 km/h (0 Bft)
03.01.2009 20:00 15,2 C -0,6 C 38 % 80 % 1024,6 hPa 0,0 l/m 0,0 km/h (0 Bft)
03.01.2009 21:00 15,2 C -0,5 C 38 % 78 % 1024,6 hPa 0,0 l/m 0,0 km/h (0 Bft)
03.01.2009 22:00 15,3 C -0,5 C 38 % 76 % 1024,6 hPa 0,0 l/m 0,0 km/h (0 Bft)
03.01.2009 23:00 15,5 C -0,4 C 37 % 75 % 1024,6 hPa 0,0 l/m 0,0 km/h (0 Bft)
04.01.2009 00:00 15,4 C -0,4 C 37 % 74 % 1024,2 hPa 0,0 l/m 0,1 km/h (0 Bft)
04.01.2009 01:00 15,3 C -0,5 C 37 % 73 % 1023,6 hPa 0,0 l/m 0,1 km/h (0 Bft)
04.01.2009 02:00 15,2 C -0,6 C 37 % 72 % 1022,8 hPa 0,0 l/m 0,0 km/h (0 Bft)
04.01.2009 03:00 15,1 C -0,6 C 37 % 72 % 1022,6 hPa 0,0 l/m 0,0 km/h (0 Bft)
04.01.2009 04:00 15,1 C -0,6 C 37 % 73 % 1022,5 hPa 0,0 l/m 0,0 km/h (0 Bft)
04.01.2009 05:00 15,1 C -0,3 C 37 % 74 % 1021,7 hPa 0,0 l/m 0,0 km/h (0 Bft)
04.01.2009 06:00 15,1 C -0,1 C 37 % 75 % 1021,6 hPa 0,0 l/m 0,0 km/h (0 Bft)
04.01.2009 07:00 15,1 C -0,1 C 37 % 75 % 1021,6 hPa 0,0 l/m 0,0 km/h (0 Bft)
04.01.2009 08:00 15,1 C 0,1 C 37 % 77 % 1021,6 hPa 0,0 l/m 0,0 km/h (0 Bft)
04.01.2009 09:00 15,1 C 0,1 C 37 % 77 % 1020,6 hPa 0,0 l/m 0,0 km/h (0 Bft)
04.01.2009 10:00 15,1 C 0,3 C 37 % 77 % 1020,6 hPa 0,0 l/m 0,3 km/h (0 Bft)
04.01.2009 11:00 15,1 C 0,6 C 37 % 76 % 1020,2 hPa 0,0 l/m 1,3 km/h (1 Bft)
04.01.2009 12:00 15,1 C 0,7 C 37 % 76 % 1019,6 hPa 0,0 l/m 1,3 km/h (1 Bft)
04.01.2009 13:00 15,1 C 0,9 C 37 % 76 % 1018,7 hPa 0,0 l/m 2,0 km/h (1 Bft)
04.01.2009 14:00 15,0 C 0,9 C 37 % 76 % 1018,6 hPa 0,0 l/m 2,8 km/h (1 Bft)
04.01.2009 15:00 15,0 C 0,8 C 37 % 76 % 1018,1 hPa 0,0 l/m 2,5 km/h (1 Bft)
04.01.2009 16:00 15,1 C 0,6 C 37 % 78 % 1017,6 hPa 0,0 l/m 1,4 km/h (1 Bft)
04.01.2009 17:00 15,1 C 0,4 C 37 % 79 % 1017,6 hPa 0,0 l/m 1,4 km/h (1 Bft)
04.01.2009 18:00 15,1 C 0,2 C 38 % 80 % 1017,6 hPa 0,0 l/m 2,2 km/h (1 Bft)
04.01.2009 19:00 15,1 C 0,2 C 38 % 81 % 1016,9 hPa 0,0 l/m 3,7 km/h (1 Bft)
04.01.2009 20:00 15,1 C 0,1 C 38 % 82 % 1016,6 hPa 0,0 l/m 2,0 km/h (1 Bft)
04.01.2009 21:00 15,1 C -0,0 C 38 % 83 % 1016,5 hPa 0,0 l/m 1,8 km/h (1 Bft)
04.01.2009 22:00 15,4 C -0,2 C 38 % 84 % 1015,7 hPa 0,0 l/m 3,1 km/h (1 Bft)
04.01.2009 23:00 15,3 C -0,3 C 38 % 85 % 1015,6 hPa 0,0 l/m 1,9 km/h (1 Bft)
Min-Datum _ 31.12.08 03.01.09 29.12.08 30.12.08 04.01.09 - 29.12.08
_ Min-Zeit 07:50 08:12 11:42 14:24 21:52 - 00:00
Minimum _ 15,0 C -9,1 C 34 % 67 % 1015,6 hPa - 0,0 km/h (0 Bft)
Max-Datum _ 02.01.09 31.12.08 02.01.09 02.01.09 30.12.08 02.01.09 04.01.09
_ Max-Zeit 23:04 12:38 15:44 14:52 09:48 16:44 15:32
Maximum _ 16,9 C 2,6 C 39 % 88 % 1032,7 hPa 0,5 l/m 21,5 km/h
N (4 Bft)
Durchschnitt _ 15,7 C -2,5 C 36 % 82 % 1027,6 hPa #1,4 l/m 0,2 km/h (0 Bft)
© 2012 W. Hausmann